Airfield :
LOGIN :

Register | Disclaimer

   EN    FR    IT 

 










Legend :    VFR   Marginal VFR   IFR   Intensive IFR   Very Intensive IFR
Visi :
Ceiling :
>= 8 km
>= 3000ft
5 to 8 km
1000 to 3000 ft
1500m to 5 km
500 to 1000 ft
800 to 1500m
200 to 500 ft
< 800m
< 200 ft
Symbols :   Thunderstorms  Fog  Heavy snow  Heavy precipitations  Wind > 20 kt
SIGMETs :     Misc.  Thunderstorms  Icing  Turbulence  Mountain Waves  Volcanic Ashes







- Airport Elevation : 80 ft
- IATA code : LPL
- Download approach charts


EGGP - Liverpool John Lennon

CURRENT METAR :
  • 100920Z 29006KT 9999 VCSH SCT019 BKN032 07/05 Q1026

EXPIRED METARs :
  • 100850Z 27006KT 9999 VCSH SCT022 SCT045 08/06 Q1026
  • 100820Z 29008KT 9999 VCSH SCT022 SCT045 07/05 Q1026
  • 100750Z 28006KT 9999 VCSH FEW020 SCT045 07/05 Q1025
  • 100720Z 29007KT 9999 SCT019 SCT037 07/05 Q1025
  • 100650Z 28005KT 9999 FEW012 SCT022 08/06 Q1025

TAF TAF EGGP
Valid from the 10 at 06:00 until the 11 at 06:00 UTC


100500Z 1006/1106 29010KT 9999 FEW018 SCT025
TEMPO 1006/1014 6000 SHRA
PROB30
TEMPO 1006/1014 BKN014
BECMG 1017/1020 19005KT
BECMG 1103/1106 12010KT
PROB30
TEMPO 1103/1106 8000 -RA
ATIS : +44 151 907 2000 (option 5 or ext 5150)
Met : +44 871 750 5150
No reported NOTAMs for that airfield.



MET'MAP, your aeronautical weather chart ! - Copyright ORBIFLY December 2007 - Disclaimer

ORBIFLY MET'MAP TEAM :

Programming & Development : Alexandra Zaïnal
Concept & Development : Baudouin d'Aumeries
Co-Development & Prog : Marc-Olivier Méhu
Technical & hardware support : Manuel Goepfert

Contact : metmap@orbifly.com




SOURCES & CREDITS :

   NOAA